AIZ802 LLER-LLBG

Flight info

Callsign AIZ802
Flight time 0h 42m
Altitude 25000
Route NURIT J10 AMMIT
Aircraft A21N/M-SDE2E3FGHIRWXY/LB1

Departure

Time 2026-04-26 16:41
Airport Ramon International Airport (LLER)

Arrival

Time 2026-04-26 17:23
Airport Ben Gurion International Airport (LLBG)
Time Latitude Longitude Altitude Speed Heading
2026-04-26 16:20 29.72888 35.00883 255 ft 0 kts 283°
2026-04-26 16:32 29.72886 35.00893 255 ft 4 kts 283°
2026-04-26 16:32 29.72880 35.00923 255 ft 4 kts 283°
2026-04-26 16:32 29.72874 35.00953 255 ft 4 kts 270°
2026-04-26 16:32 29.72879 35.00981 255 ft 4 kts 231°
2026-04-26 16:33 29.72896 35.00995 255 ft 1 kts 193°
2026-04-26 16:35 29.72872 35.00989 255 ft 14 kts 193°
2026-04-26 16:35 29.72764 35.00959 255 ft 18 kts 193°
2026-04-26 16:35 29.72633 35.00922 255 ft 20 kts 194°
2026-04-26 16:35 29.72492 35.00884 255 ft 21 kts 186°
2026-04-26 16:36 29.72409 35.00971 257 ft 16 kts 107°
2026-04-26 16:36 29.72357 35.01065 260 ft 12 kts 159°
2026-04-26 16:36 29.72245 35.01051 261 ft 31 kts 193°
2026-04-26 16:36 29.72014 35.00986 261 ft 35 kts 194°
2026-04-26 16:37 29.71776 35.00920 260 ft 36 kts 193°
2026-04-26 16:37 29.71531 35.00850 260 ft 37 kts 193°
2026-04-26 16:37 29.71300 35.00786 260 ft 29 kts 194°
2026-04-26 16:37 29.71208 35.00788 261 ft 8 kts 143°
2026-04-26 16:38 29.71176 35.00835 265 ft 7 kts 106°
2026-04-26 16:38 29.71173 35.00848 266 ft 0 kts 104°
2026-04-26 16:38 29.71172 35.00855 267 ft 8 kts 104°
2026-04-26 16:39 29.71164 35.00922 275 ft 6 kts 87°
2026-04-26 16:39 29.71212 35.00985 276 ft 12 kts 23°
2026-04-26 16:39 29.71268 35.01003 276 ft 0 kts 14°
2026-04-26 16:39 29.71280 35.01006 276 ft 3 kts 14°
2026-04-26 16:40 29.71323 35.01018 276 ft 8 kts 13°
2026-04-26 16:40 29.71355 35.01027 276 ft 25 kts 13°
2026-04-26 16:40 29.71768 35.01142 280 ft 97 kts 13°
2026-04-26 16:40 29.72662 35.01395 330 ft 159 kts 11°
2026-04-26 16:41 29.73728 35.01728 958 ft 158 kts 14°
2026-04-26 16:41 29.74830 35.02083 1658 ft 173 kts 14°
2026-04-26 16:41 29.76038 35.02454 2430 ft 191 kts
2026-04-26 16:41 29.77429 35.02700 2871 ft 217 kts
2026-04-26 16:42 29.78995 35.02955 3316 ft 238 kts
2026-04-26 16:42 29.80705 35.03193 3791 ft 255 kts
2026-04-26 16:42 29.82492 35.03416 4803 ft 259 kts
2026-04-26 16:42 29.84299 35.03644 5915 ft 265 kts
2026-04-26 16:43 29.86169 35.03883 6847 ft 276 kts
2026-04-26 16:43 29.88129 35.04134 7679 ft 291 kts
2026-04-26 16:43 29.90172 35.04396 8674 ft 299 kts
2026-04-26 16:43 29.92277 35.04669 9704 ft 309 kts
2026-04-26 16:44 29.94469 35.04952 10464 ft 329 kts
2026-04-26 16:44 29.96845 35.05256 10921 ft 357 kts
2026-04-26 16:44 29.99346 35.05578 11575 ft 373 kts
2026-04-26 16:44 30.01963 35.05921 12491 ft 382 kts
2026-04-26 16:45 30.04622 35.06271 13516 ft 388 kts
2026-04-26 16:45 30.07334 35.06649 14407 ft 395 kts
2026-04-26 16:45 30.13170 35.07764 16208 ft 410 kts
2026-04-26 16:46 30.15999 35.08372 17116 ft 415 kts
2026-04-26 16:46 30.18864 35.08994 17970 ft 421 kts
2026-04-26 16:46 30.21759 35.09617 18714 ft 426 kts
2026-04-26 16:46 30.24702 35.10220 19456 ft 431 kts
2026-04-26 16:47 30.27673 35.10795 20181 ft 435 kts
2026-04-26 16:47 30.30670 35.11358 20696 ft 438 kts
2026-04-26 16:47 30.33694 35.11920 20893 ft 441 kts
2026-04-26 16:47 30.36717 35.12490 20921 ft 439 kts
2026-04-26 16:48 30.39726 35.13065 20910 ft 438 kts
2026-04-26 16:48 30.42737 35.13645 20916 ft 438 kts
2026-04-26 16:48 30.45745 35.14226 20918 ft 438 kts
2026-04-26 16:48 30.48756 35.14808 20947 ft 439 kts
2026-04-26 16:49 30.51766 35.15391 20926 ft 439 kts
2026-04-26 16:49 30.54731 35.15976 20923 ft 440 kts
2026-04-26 16:49 30.57702 35.16903 20927 ft 444 kts 14°
2026-04-26 16:49 30.60611 35.18160 20928 ft 447 kts 18°
2026-04-26 16:50 30.63471 35.19582 20934 ft 448 kts 20°
2026-04-26 16:50 30.66314 35.21069 20933 ft 448 kts 20°
2026-04-26 16:50 30.69158 35.22562 20934 ft 448 kts 20°
2026-04-26 16:50 30.72008 35.24036 20933 ft 448 kts 20°
2026-04-26 16:51 30.74869 35.25489 20920 ft 447 kts 20°
2026-04-26 16:51 30.77726 35.26918 20936 ft 446 kts 19°
2026-04-26 16:51 30.80578 35.28331 20939 ft 446 kts 19°
2026-04-26 16:51 30.83399 35.29719 20940 ft 446 kts 19°
2026-04-26 16:52 30.86332 35.31154 20944 ft 470 kts 19°
2026-04-26 16:52 30.88412 35.32171 20942 ft 486 kts 19°
2026-04-26 16:52 30.92617 35.34234 20947 ft 501 kts 20°
2026-04-26 16:52 30.95920 35.35494 20950 ft 498 kts
2026-04-26 16:53 30.99347 35.36138 20948 ft 495 kts
2026-04-26 16:53 31.02775 35.36478 20954 ft 494 kts 359°
2026-04-26 16:53 31.06195 35.36702 20947 ft 493 kts 358°
2026-04-26 16:53 31.09625 35.36913 20951 ft 493 kts 358°
2026-04-26 16:54 31.13050 35.37153 20948 ft 493 kts 359°
2026-04-26 16:54 31.16479 35.37436 20950 ft 494 kts 360°
2026-04-26 16:54 31.19912 35.37758 20949 ft 494 kts
2026-04-26 16:54 31.23337 35.38105 20949 ft 495 kts
2026-04-26 16:55 31.26726 35.38462 20952 ft 495 kts
2026-04-26 16:55 31.30158 35.38830 20952 ft 495 kts
2026-04-26 16:55 31.33574 35.38998 20972 ft 488 kts 351°
2026-04-26 16:55 31.36848 35.38193 20956 ft 476 kts 334°
2026-04-26 16:56 31.42016 35.33879 20957 ft 448 kts 302°
2026-04-26 16:56 31.43602 35.30795 20963 ft 440 kts 291°
2026-04-26 16:56 31.45096 35.27655 20957 ft 443 kts 296°
2026-04-26 16:57 31.46852 35.24660 20994 ft 448 kts 301°
2026-04-26 16:57 31.48817 35.21824 20968 ft 449 kts 305°
2026-04-26 16:57 31.53060 35.16432 20967 ft 451 kts 308°
2026-04-26 16:58 31.55252 35.13803 20970 ft 451 kts 309°
2026-04-26 16:58 31.55997 35.12921 20972 ft 451 kts 309°
2026-04-26 16:58 31.61915 35.05992 20973 ft 451 kts 309°
2026-04-26 16:59 31.64147 35.03395 20978 ft 451 kts 309°
2026-04-26 16:59 31.68605 34.98208 21001 ft 452 kts 310°
2026-04-26 17:00 31.73065 34.93015 20967 ft 456 kts 310°
2026-04-26 17:00 31.77573 34.87765 20970 ft 456 kts 310°
2026-04-26 17:00 31.79827 34.85135 20970 ft 456 kts 310°
2026-04-26 17:01 31.82078 34.82507 20969 ft 456 kts 310°
2026-04-26 17:01 31.84330 34.79877 20968 ft 456 kts 310°
2026-04-26 17:01 31.86582 34.77244 20968 ft 456 kts 310°
2026-04-26 17:01 31.88827 34.74617 20967 ft 456 kts 310°
2026-04-26 17:02 31.91070 34.71988 20971 ft 455 kts 311°
2026-04-26 17:02 31.93318 34.69353 20956 ft 455 kts 311°
2026-04-26 17:02 31.95563 34.66723 20968 ft 455 kts 311°
2026-04-26 17:02 31.97783 34.64119 20969 ft 455 kts 311°
2026-04-26 17:03 32.00056 34.61451 20969 ft 455 kts 311°
2026-04-26 17:03 32.02269 34.58852 20971 ft 455 kts 311°
2026-04-26 17:03 32.04509 34.56218 20934 ft 454 kts 311°
2026-04-26 17:03 32.06711 34.53630 20314 ft 439 kts 311°
2026-04-26 17:04 32.08162 34.51924 19502 ft 434 kts 311°
2026-04-26 17:04 32.10994 34.48585 17679 ft 434 kts 311°
2026-04-26 17:04 32.12411 34.46913 16787 ft 432 kts 311°
2026-04-26 17:04 32.14524 34.44422 15552 ft 426 kts 311°
2026-04-26 17:05 32.16604 34.41968 14352 ft 420 kts 310°
2026-04-26 17:05 32.18660 34.39539 13135 ft 414 kts 310°
2026-04-26 17:05 32.20679 34.37152 11876 ft 408 kts 311°
2026-04-26 17:05 32.22669 34.34796 10677 ft 402 kts 311°
2026-04-26 17:06 32.24633 34.32470 9458 ft 397 kts 311°
2026-04-26 17:06 32.26515 34.30134 10627 ft 389 kts 308°
2026-04-26 17:06 32.28420 34.27810 9523 ft 398 kts 311°
2026-04-26 17:06 32.30392 34.25515 8145 ft 395 kts 312°
2026-04-26 17:07 32.32318 34.23288 7434 ft 375 kts 312°
2026-04-26 17:07 32.34242 34.21337 7379 ft 363 kts 320°
2026-04-26 17:07 32.36431 34.19871 7051 ft 368 kts 334°
2026-04-26 17:07 32.38962 34.19170 6967 ft 380 kts 353°
2026-04-26 17:08 32.41605 34.19493 6957 ft 387 kts 14°
2026-04-26 17:08 32.44015 34.20901 6960 ft 390 kts 36°
2026-04-26 17:08 32.45863 34.23246 6952 ft 390 kts 58°
2026-04-26 17:08 32.46947 34.26131 6960 ft 389 kts 73°
2026-04-26 17:09 32.47343 34.29260 6959 ft 383 kts 95°
2026-04-26 17:09 32.47044 34.31307 6956 ft 378 kts 110°
2026-04-26 17:09 32.45607 34.34933 6954 ft 341 kts 124°
2026-04-26 17:09 32.44300 34.37086 6949 ft 304 kts 137°
2026-04-26 17:10 32.42791 34.38650 6971 ft 279 kts 151°
2026-04-26 17:10 32.41057 34.39530 6987 ft 270 kts 165°
2026-04-26 17:10 32.39294 34.40222 6985 ft 269 kts 167°
2026-04-26 17:10 32.37499 34.40858 6986 ft 269 kts 168°
2026-04-26 17:11 32.35696 34.41478 6988 ft 270 kts 168°
2026-04-26 17:11 32.33893 34.42094 6987 ft 270 kts 168°
2026-04-26 17:11 32.32088 34.42711 6989 ft 270 kts 168°
2026-04-26 17:11 32.30282 34.43328 6986 ft 270 kts 168°
2026-04-26 17:12 32.26685 34.44559 6895 ft 266 kts 168°
2026-04-26 17:12 32.24912 34.45166 6386 ft 264 kts 168°
2026-04-26 17:13 32.21834 34.47556 5996 ft 283 kts 129°
2026-04-26 17:13 32.20757 34.49515 5989 ft 285 kts 126°
2026-04-26 17:13 32.18644 34.53432 5993 ft 285 kts 127°
2026-04-26 17:14 32.17550 34.55383 5837 ft 283 kts 128°
2026-04-26 17:14 32.15446 34.59276 4710 ft 281 kts 124°
2026-04-26 17:14 32.14449 34.61266 4107 ft 281 kts 123°
2026-04-26 17:15 32.12500 34.65217 3120 ft 276 kts 122°
2026-04-26 17:15 32.11516 34.67162 2998 ft 276 kts 122°
2026-04-26 17:15 32.10861 34.69289 2993 ft 278 kts 97°
2026-04-26 17:16 32.11069 34.71528 2997 ft 276 kts 69°
2026-04-26 17:16 32.12100 34.73402 2993 ft 272 kts 41°
2026-04-26 17:16 32.13707 34.74493 2990 ft 266 kts 12°
2026-04-26 17:16 32.15515 34.74574 2992 ft 259 kts 345°
2026-04-26 17:17 32.17117 34.73691 2997 ft 254 kts 324°
2026-04-26 17:17 32.18480 34.72365 2991 ft 254 kts 311°
2026-04-26 17:17 32.19433 34.70633 2992 ft 251 kts 289°
2026-04-26 17:17 32.19673 34.68617 2991 ft 250 kts 263°
2026-04-26 17:18 32.19090 34.66726 2991 ft 253 kts 237°
2026-04-26 17:18 32.17781 34.65348 2998 ft 256 kts 209°
2026-04-26 17:18 32.16044 34.64852 2992 ft 262 kts 182°
2026-04-26 17:18 32.14274 34.65384 2990 ft 269 kts 152°
2026-04-26 17:19 32.11824 34.68759 2992 ft 274 kts 126°
2026-04-26 17:19 32.10741 34.70617 2993 ft 275 kts 127°
2026-04-26 17:19 32.09645 34.72443 2657 ft 271 kts 127°
2026-04-26 17:20 32.08539 34.74232 2184 ft 269 kts 127°
2026-04-26 17:20 32.07801 34.75406 2039 ft 269 kts 127°
2026-04-26 17:20 32.06361 34.77677 1977 ft 243 kts 127°
2026-04-26 17:20 32.05397 34.79191 1913 ft 215 kts 127°
2026-04-26 17:21 32.04611 34.80499 1800 ft 178 kts 123°
2026-04-26 17:21 32.04004 34.81646 1562 ft 160 kts 122°
2026-04-26 17:21 32.03419 34.82744 1167 ft 156 kts 121°
2026-04-26 17:21 32.02895 34.83823 870 ft 149 kts 120°
2026-04-26 17:22 32.02378 34.84859 579 ft 145 kts 122°
2026-04-26 17:22 32.01869 34.85840 331 ft 135 kts 123°
2026-04-26 17:22 32.01388 34.86750 154 ft 128 kts 123°
2026-04-26 17:22 32.00957 34.87573 123 ft 98 kts 122°
2026-04-26 17:23 32.00694 34.88077 120 ft 47 kts 121°
2026-04-26 17:23 32.00522 34.88409 121 ft 47 kts 120°
2026-04-26 17:23 32.00352 34.88616 123 ft 25 kts 148°
2026-04-26 17:23 32.00224 34.88687 122 ft 18 kts 162°
2026-04-26 17:24 32.00127 34.88681 120 ft 10 kts 224°
2026-04-26 17:24 32.00119 34.88604 121 ft 10 kts 287°
2026-04-26 17:24 32.00178 34.88483 119 ft 33 kts 302°
2026-04-26 17:24 32.00302 34.88247 121 ft 35 kts 301°
2026-04-26 17:25 32.00433 34.87995 121 ft 35 kts 298°
2026-04-26 17:25 32.00414 34.87893 120 ft 12 kts 212°
2026-04-26 17:25 32.00349 34.87849 119 ft 5 kts 194°
2026-04-26 17:25 32.00326 34.87859 120 ft 6 kts 143°
2026-04-26 17:26 32.00305 34.87889 121 ft 0 kts 122°
2026-04-26 17:26 32.00305 34.87903 119 ft 2 kts 76°
2026-04-26 17:26 32.00304 34.87929 120 ft 0 kts 101°